SB KEPS @ AMSAT $ORB07116.N 2Line Orbital Elements 07116.AMSAT
HR AMSAT ORBITAL ELEMENTS FOR AMATEUR SATELLITES IN NASA FORMAT FROM WA5QGD FORT WORTH,TX April 26, 2007 Send Subscribe/unsubscribe to KEPS at http://www.amsat.org/mailman/listinfo/keps BID: ORB07116.N
DECODE 2-LINE ELSETS WITH THE FOLLOWING KEY: 1 AAAAAU 00 0 0 BBBBB.BBBBBBBB .CCCCCCCC 00000-0 00000-0 0 DDDZ 2 AAAAA EEE.EEEE FFF.FFFF GGGGGGG HHH.HHHH III.IIII JJ.JJJJJJJJKKKKKZ KEY: A-CATALOGNUM B-EPOCHTIME C-DECAY D-ELSETNUM E-INCLINATION F-RAAN G-ECCENTRICITY H-ARGPERIGEE I-MNANOM J-MNMOTION K-ORBITNUM Z-CHECKSUM
TO ALL RADIO AMATEURS BT
AO-07 1 07530U 74089B 07115.54904252 -.00000028 00000-0 10000-3 0 8598 2 07530 101.5195 155.0964 0011995 359.8061 000.3006 12.53572779484526 AO-10 1 14129U 83058B 07115.60029208 -.00000017 00000-0 10000-3 0 3753 2 14129 026.6578 280.2070 6058353 016.9405 356.6049 02.05869453179481 UO-11 1 14781U 84021B 07115.50773298 .00000282 00000-0 45048-4 0 03576 2 14781 098.1924 137.1854 0009039 348.4674 011.6316 14.79544310241948 RS-15 1 23439U 94085A 07115.92066405 -.00000039 00000-0 10597-3 0 00420 2 23439 064.8151 091.4421 0160845 200.1562 159.2959 11.27552032507807 FO-29 1 24278U 96046B 07115.91846388 -.00000046 00000-0 -95359-5 0 04947 2 24278 098.5447 082.5946 0350149 218.6448 138.9158 13.52929183527834 SO-33 1 25509U 98061B 07115.55903438 .00000105 00000-0 85832-5 0 09139 2 25509 031.4326 163.2882 0355352 327.2060 030.6975 14.28161788443721 AO-40 1 26609U 00072B 07115.78869021 -.00000003 00000-0 10000-3 0 8680 2 26609 005.1371 152.8253 7988954 307.4972 003.9410 01.25586679 29782 VO-52 1 28650U 05017B 07115.28594778 .00000108 00000-0 20425-4 0 06115 2 28650 097.8336 187.1805 0028340 067.0819 293.3436 14.81299074106582 PO-63 1 29712U 07001D 07116.51334758 .00000585 00000-0 84853-4 0 3073 2 29712 097.9248 176.3827 0013001 299.5518 060.4398 14.79648072 15699 AO-16 1 20439U 90005D 07115.46757793 -.00000006 00000-0 13107-4 0 00202 2 20439 098.1946 112.9325 0011164 349.8202 010.2760 14.31757023901000 LO-19 1 20442U 90005G 07115.58474898 .00000018 00000-0 21843-4 0 09477 2 20442 098.1817 122.4626 0011981 348.0878 012.0019 14.31997893901163 AO-27 1 22825U 93061C 07115.90137053 -.00000116 00000-0 -29331-4 0 06708 2 22825 098.3260 088.0739 0009415 058.8106 301.3986 14.29205472708024 IO-26 1 22826U 93061D 07115.88768844 .00000004 00000-0 17671-4 0 03675 2 22826 098.3197 089.1540 0009936 055.9268 304.2855 14.29451865708106 PO-28 1 22829U 93061G 07115.86925143 .00000105 00000-0 56533-4 0 06443 2 22829 098.3088 090.3100 0010616 031.5728 328.6083 14.30151789708334 GO-32 1 25397U 98043D 07115.64011668 -.00000113 00000-0 -31897-4 0 02864 2 25397 098.4180 165.1406 0001886 049.3005 310.8339 14.23123610456684 MO-46 1 26548U 00057D 07115.11804592 .00000151 00000-0 36454-4 0 07790 2 26548 064.5579 346.8419 0021595 204.2983 155.7107 14.83126647355672 NO-44 1 26931U 01043C 07115.89362734 .00000235 00000-0 12420-3 0 05735 2 26931 067.0522 282.1937 0007105 274.0046 086.0237 14.29482074290629 SO-50 1 27607U 02058C 07115.85236762 -.00000196 00000-0 -91436-5 0 02988 2 27607 064.5577 243.9259 0048003 015.5903 344.6667 14.71249436233421 CO-55 1 27844U 03031E 07115.76975062 .00000046 00000-0 42060-4 0 00131 2 27844 098.7198 124.7875 0008974 241.4421 118.5860 14.20505692198033 CO-57 1 27848U 03031J 07115.50186174 .00000005 00000-0 22816-4 0 09743 2 27848 098.7186 123.7371 0008986 246.0024 114.0209 14.20325193197973 AO-51 1 28375U 04025K 07115.57195381 .00000013 00000-0 17041-4 0 7998 2 28375 098.1190 157.5899 0084644 342.6562 017.1740 14.40563647148130 CO-56 1 28941U 06005C 07115.85600115 .00023465 23642-5 24627-3 0 04233 2 28941 098.1359 171.1820 0234719 098.2523 264.5338 15.37755878065385 HO-59 1 29484U 06041F 07115.67130763 .00046120 28894-5 33401-3 0 02823 2 29484 098.2929 157.5895 0223814 094.0722 268.6197 15.47050063032940 NO-60 1 29661U 06055C 07115.91114628 .00156315 21769-4 26886-3 0 02048 2 29661 051.6394 002.3594 0009119 153.2337 206.9145 16.01979533020037 NO-61 1 29664U 06055F 07115.94608348 .00024744 11298-4 99365-4 0 01274 2 29664 051.6354 007.1163 0015426 135.2864 224.9372 15.88221499019848 CP4 1 31122U 07012F 07116.95535783 .00000184 00000-0 51234-4 0 194 2 31122 098.0863 191.8862 0086130 183.4625 176.6003 14.54993817 1406 CP3 1 31128U 07012M 07115.73584916 -.00000047 00000-0 00000-0 0 00120 2 31128 098.0833 190.6632 0103077 187.2464 172.7268 14.51824016001214 LIBERT 1 31129U 07012N 07116.49345016 .00000384 00000-0 10000-3 0 320 2 31129 098.0829 191.3915 0102728 184.9045 175.1150 14.51909518 1301 NOAA-10 1 16969U 86073A 07115.58724921 -.00000101 00000-0 -22914-4 0 06349 2 16969 098.7485 132.7326 0012008 325.2748 034.7646 14.27322290071729 NOAA-11 1 19531U 88089A 07115.79974633 .00000203 00000-0 12795-3 0 06320 2 19531 098.8093 205.6160 0011615 176.1686 183.9588 14.14843272958748 NOAA-12 1 21263U 91032A 07115.94202334 .00000042 00000-0 36659-4 0 01272 2 21263 098.7523 113.2722 0011841 258.7653 101.2177 14.25527045828809 MET-3/5 1 21655U 91056A 07115.90532903 .00000051 00000-0 10000-3 0 02763 2 21655 082.5511 039.8720 0013665 344.8503 015.2209 13.17010784754524 MET-2/21 1 22782U 93055A 07115.86834086 .00000047 00000-0 28963-4 0 08082 2 22782 082.5452 083.4190 0023334 026.6919 333.5451 13.83617158689282 OKEAN-4 1 23317U 94066A 07115.80404142 .00000107 00000-0 10220-4 0 2459 2 23317 082.5409 345.4110 0023902 066.4902 293.8816 14.82492347676298 NOAA-14 1 23455U 94089A 07115.91843961 -.00000120 00000-0 -39500-4 0 06111 2 23455 098.9914 181.8163 0008653 244.5639 115.4602 14.13713199635253 SICH-1 1 23657U 95046A 07115.53859787 .00000257 00000-0 29562-4 0 00480 2 23657 082.5256 126.5922 0025586 058.8143 301.5601 14.81473724628233 NOAA-15 1 25338U 98030A 07116.69095125 .00000087 00000-0 37529-4 0 9707 2 25338 098.5313 114.8287 0010578 174.2886 185.8904 14.24637257465360 RESURS 1 25394U 98043A 07115.72566525 -.00000005 00000-0 16083-4 0 06455 2 25394 098.4479 172.3228 0001891 014.8212 345.3022 14.24133144456885 FENGYUN1 1 25730U 99025A 07116.95326955 .00000522 00000-0 33433-3 0 811 2 25730 098.6894 102.7685 0019711 275.4265 084.4681 14.07462161410268 OKEAN-0 1 25860U 99039A 07115.60243439 .00000057 00000-0 15936-4 0 357 2 25860 097.7317 120.3104 0001150 105.3966 254.7379 14.73446241417752 NOAA-16 1 26536U 00055A 07116.05205826 .00000348 00000-0 21376-3 0 3840 2 26536 099.1129 092.0962 0009952 324.1116 035.9391 14.12422492339743 NOAA-17 1 27453U 02032A 07115.88607528 -.00000005 00000-0 16585-4 0 03940 2 27453 098.5812 186.4349 0010917 243.5346 116.4722 14.23872051251279 NOAA-18 1 28654U 05018A 07115.92324894 -.00000070 00000-0 -14943-4 0 09336 2 28654 098.8251 058.0910 0015264 058.0684 302.1988 14.11056139099484 HUBBLE 1 20580U 90037B 07115.85230504 .00000408 00000-0 18814-4 0 08824 2 20580 028.4665 171.3876 0003411 261.4785 098.5415 15.00227615732095 UARS 1 21701U 91063B 07115.64888598 .00004239 00000-0 74393-4 0 00551 2 21701 056.9739 181.8552 0100055 091.1180 270.1345 15.47660219857613 PO-34 1 25520U 98064B 07115.34713688 .00000492 00000-0 14550-4 0 07302 2 25520 028.4600 102.3940 0005079 043.6172 316.4821 15.16976074469492 ISS 1 25544U 98067A 07116.97320602 .00055934 00000-0 31131-3 0 982 2 25544 051.6333 008.4703 0017380 107.3971 082.6440 15.78683823482685 OO-38 1 26063U 00004C 07115.55711925 -.00000020 00000-0 13606-4 0 8947 2 26063 100.2268 108.4593 0036775 308.5963 051.1931 14.35802673379491 UWE-1 1 28892U 05043C 07115.76536128 .00000169 00000-0 45283-4 0 07331 2 28892 098.1350 013.4349 0016389 277.1397 082.7950 14.59492183079568 CO-58 1 28895U 05043F 07115.67719620 .00000228 00000-0 57743-4 0 07132 2 28895 098.1369 013.5399 0016837 277.3414 082.5912 14.59541263079433 NCUBE2 1 28897U 05043H 07116.64894621 .00000155 00000-0 42155-4 0 2367 2 28897 098.1370 014.4552 0016224 276.3491 083.5871 14.59702555 71858 NMARS 1 29662U 06055D 07115.92421258 .00427695 10657-3 37619-3 0 02467 2 29662 051.6341 000.0924 0006456 179.2470 180.8551 16.12390165019959 FCAL 1 29667U 06055J 07115.94653900 .00017409 00000-0 70547-4 0 01312 2 29667 051.6358 007.8866 0016491 137.3541 222.8746 15.86224937019705 FALCON 1 30776U 07006E 07115.56630717 .00000255 00000-0 21780-4 0 00495 2 30776 035.4335 171.6506 0001654 354.5914 005.4784 15.02685688007139 MAST 1 31126U 07012K 07116.41559587 .00000393 00000-0 10000-3 0 161 2 31126 098.0847 191.3391 0094993 185.0678 174.9547 14.53333903 1335 CAPE1 1 31130U 07012P 07115.66683451 .00000148 00000-0 45396-4 0 53 2 31130 098.0838 190.5976 0103076 187.4083 172.5597 14.51841167 993 /EX